This demonstration page uses our WeatherBlox Daily Observations layout. Learn more.

Left ArrowRight Arrow

41.55636, -103.73856

Hourly Observations for June 7, 2015

Temp ( °F °C ) Dew Point ( °F °C ) Humidity (%) Winds ( mph kmh ) Pressure ( in mb ) Visibility ( mi km ) Precip ( " mm )
12:53 am 00:53 Cloudy with Light Rain 64 17.8 61 16.1 90 90 ESE 8 13 29.81 1010 8 12.87472 0.02 0.508
1:53 am 01:53 Partly Cloudy 61 16.1 60 15.6 97 97 WNW 7 11 29.82 1010 10 16.0934 0 0.0254
2:53 am 02:53 Mostly Cloudy with Light Rain 62 16.7 59 15 90 90 NW 7 11 29.82 1010 10 16.0934 0 0.0254
3:25 am 03:25 Cloudy with Nearby Thunderstorms 62 16.7 59 15 90 90 NW 9 15 29.83 1010 9 14.48406 0 0.0254
3:40 am 03:40 Cloudy with Light Rain 63 17 61 16 94 94 SW 7 11 29.83 1010 7 11.26538 0 0
3:50 am 03:50 Cloudy with Heavy Thunderstorms 63 17 59 15 88 88 WNW 17 28 29.85 1011 2 3.21868 0 0
3:53 am 03:53 Cloudy with Heavy Thunderstorms 61 16.1 56 13.3 84 84 N 9 15 29.88 1012 1.5 2.41401 0.18 4.572
4:06 am 04:06 Cloudy with Light Thunderstorms 61 16.1 56 13.3 84 84 NW 6 9 29.85 1011 3 4.82802 0.28 7.112
4:39 am 04:39 Cloudy with Nearby Thunderstorms 58 14.4 57 13.9 97 97 Calm 29.88 1012 8 12.87472 0.36 9.144
4:46 am 04:46 Cloudy with Light Rain 59 15 57 14 94 94 Calm 29.88 1012 9 14.48406 0 0
4:53 am 04:53 Cloudy with Light Rain 58 14.4 57 13.9 97 97 ENE 3 6 29.88 1012 8 12.87472 0.37 9.398
5:53 am 05:53 Mostly Sunny 58 14.4 55 12.8 90 90 SSW 9 15 29.88 1012 10 16.0934 0.03 0.762
6:53 am 06:53 Mostly Sunny 58 14.4 57 13.9 97 97 NNW 5 7 29.89 1012 10 16.0934 0 0
7:53 am 07:53 Mostly Cloudy 60 15.6 56 13.3 86 86 NW 5 7 29.93 1013 10 16.0934 0 0
8:53 am 08:53 Mostly Sunny 64 17.8 57 13.9 78 78 W 6 9 29.92 1013 10 16.0934 0 0
9:53 am 09:53 Sunny 70 21.1 58 14.4 66 66 NW 8 13 29.91 1013 10 16.0934 0 0
10:53 am 10:53 Mostly Cloudy 71 21.7 59 15 66 66 NW 8 13 29.91 1013 10 16.0934 0 0
11:53 am 11:53 Mostly Cloudy 73 22.8 55 12.8 53 53 NW 10 17 29.9 1013 10 16.0934 0 0
12:53 pm 12:53 Mostly Cloudy with Nearby Thunderstorms 71 21.7 54 12.2 55 55 NNW 9 15 29.92 1013 10 16.0934 0 0
1:19 pm 13:19 Cloudy with Nearby Thunderstorms 64 17.8 56 13.3 75 75 NW 9 15 29.91 1013 1.75 2.816345 0.02 0.508
1:26 pm 13:26 Cloudy with Light Rain 64 17.8 57 13.9 78 78 Calm 29.88 1012 2 3.21868 0.09 2.286
1:34 pm 13:34 Cloudy 68 20 57 14 69 69 Calm 29.85 1011 10 16.0934 0 0
1:53 pm 13:53 Mostly Cloudy with Light Rain 67 19.4 59 15 76 76 W 7 11 29.94 1014 10 16.0934 0.09 2.286
2:53 pm 14:53 Mostly Sunny 74 23.3 55 12.8 52 52 W 6 9 29.92 1013 10 16.0934 0 0.0254
3:53 pm 15:53 Partly Cloudy 74 23.3 53 11.7 48 48 VRB 6 9 29.91 1013 10 16.0934 0 0
4:33 pm 16:33 Mostly Cloudy with Nearby Thunderstorms 62 16.7 52 11.1 70 70 NNW 17 28 29.91 1013 4 6.43736 0.02 0.508
4:53 pm 16:53 Cloudy with Nearby Thunderstorms 63 17.2 54 12.2 73 73 NNW 6 9 29.98 1015 7 11.26538 0.05 1.27
5:25 pm 17:25 Mostly Cloudy 64 17.8 57 13.9 78 78 W 10 17 29.91 1013 10 16.0934 0.01 0.254
5:53 pm 17:53 Partly Cloudy 65 18.3 57 13.9 76 76 SW 5 7 29.97 1015 10 16.0934 0.01 0.254
6:53 pm 18:53 Sunny 69 20.6 53 11.7 57 57 NW 6 9 29.95 1014 10 16.0934 0 0
7:53 pm 19:53 Sunny 66 18.9 53 11.7 63 63 W 5 7 29.96 1015 10 16.0934 0 0
8:53 pm 20:53 Clear 64 17.8 52 11.1 65 65 WSW 5 7 29.97 1015 10 16.0934 0 0
9:53 pm 21:53 Clear 62 16.7 54 12.2 75 75 Calm 29.99 1016 10 16.0934 0 0
10:53 pm 22:53 Clear 61 16.1 54 12.2 78 78 NE 3 6 30 1016 10 16.0934 0 0
11:53 pm 23:53 Clear 58 14.4 53 11.7 84 84 NNW 5 7 30.01 1016 10 16.0934 0 0

Powered by AerisWeather